Location: Newark
(22.8000°N, 86.1800°E)
Time: 06:40:03
(UTC+00:00)

CAS-4A - Visible Passes

Search period start: 01 June 2020 00:00
Search period end: 11 June 2020 00:00
Orbit: 527 x 545 km, 43.0° (Epoch: 31 May)

Date Brightness Start Highest point End Pass type
(mag) Time Alt. Az. Time Alt. Az. Time Alt. Az.
04 Jun ? 16:01:35 10° N 16:01:36 10° N 16:01:36 10° N visible
05 Jun ? 15:50:34 10° N 15:51:26 12° N 15:51:26 12° N visible
06 Jun ? 15:39:47 10° NNW 15:41:17 16° N 15:41:17 16° N visible
07 Jun ? 15:29:05 10° NNW 15:31:11 20° N 15:31:11 20° N visible
08 Jun ? 15:18:29 10° NNW 15:21:06 26° N 15:21:06 26° N visible
09 Jun ? 15:07:55 10° NW 15:11:05 35° N 15:11:05 35° N visible
10 Jun ? 14:57:25 10° NW 15:01:06 50° NNE 15:01:06 50° NNE visible
